Regional Weather Roundup
Issued by NWS Bismarck, ND

Home | Current Version | Previous Version | Text Only | Print | Product List | Glossary On
Versions: 1 2 3 4 5 6 7 8 9 10 11 12 13 14 15 16 17 18 19 20 21 22 23 24 25 26 27 28 29 30 31 32 33 34 35 36 37 38 39 40 41 42 43 44 45 46 47 48 49 50
000
ASUS43 KBIS 170110
RWRBIS

NWR BROADCAST TEXT
NATIONAL WEATHER SERVICE BISMARCK ND
800 PM CDT MON OCT 16 2017

NOTE: "FAIR" INDICATES FEW OR NO CLOUDS BELOW 12,000 FEET WITH NO
SIGNIFICANT WEATHER AND/OR OBSTRUCTIONS TO VISIBILITY.


CITY           SKY/WX    TMP DP  RH WIND       PRES   REMARKS
WILLISTON      CLEAR     54  32  43 S6        29.94S
MINOT          CLOUDY    55  35  47 SW9       29.91S
MINOT AFB      CLOUDY    50  32  50 SW7       29.89S
BISMARCK       CLEAR     57  33  40 NW3       29.96R
DICKINSON      CLEAR     50  30  46 W5        29.98S
GARRISON         N/A     56  34  43 W9        29.94S
HETTINGER ARPT CLEAR     48  28  46 NW6       30.03R
JAMESTOWN      CLEAR     56  33  42 W7        29.91R
CARRINGTON     FAIR      52  32  46 W9        29.93S
HAZEN          FAIR      43  30  61 S5        29.97S
LINTON         FAIR      54  28  37 W5        29.98R
RUGBY            N/A     52  36  54 W5        29.90S
STANLEY        FAIR      48  32  53 W6        29.95F
TIOGA          FAIR      48  30  49 SW7       29.95S
WATFORD CITY   FAIR      50  32  50 SW7       29.95S
$$

CITY           SKY/WX    TMP DP  RH WIND       PRES   REMARKS
GRAND FORKS    CLOUDY    53  37  54 W6        29.85S
GRAND FORKS AF CLOUDY    54  35  49 W8        29.87R
DEVILS LAKE    CLOUDY    53  36  52 W7        29.90R
FARGO          CLOUDY    55  39  54 W7        29.88R
CANDO          FAIR      46  34  61 SW7       29.91S
CAVALIER       FAIR      57  37  47 W7        29.82F
GRAFTON        FAIR      52  36  54 W10       29.86R
GWINNER        CLEAR     54  41  62 SW7       29.91S
LANGDON        FAIR      46  30  53 SW12      29.87S
ROLLA          FAIR      50  32  50 W7        29.89R
WALHALLA       FAIR     N/A N/A N/A W9G15     29.82F
$$

CITY           SKY/WX    TMP DP  RH WIND       PRES   REMARKS
ABERDEEN       CLEAR     52  41  66 SW5       29.94S
MOBRIDGE       CLEAR     54  36  50 W6        29.96R
BUFFALO          N/A     56  27  32 NW9       29.99S
RAPID CITY     CLEAR     57  28  33 SW10      30.08R
GLASGOW        CLEAR     56  32  40 S6        29.92F
WOLF POINT     CLEAR     56  31  38 SW5       29.93F
GLENDIVE       CLEAR     49  29  46 NW6       29.99F
MILES CITY     CLEAR     61  29  29 S6        29.99F
BAKER          CLEAR     53  31  42 W9        30.03F
$$

CITY           SKY/WX    TMP DP  RH WIND       PRES   REMARKS
BILLINGS       CLEAR     65  25  22 SW13      30.08S
GREAT FALLS    CLEAR     59  19  21 SW16      30.04S
REGINA         PTCLDY    48  28  46 S8        29.83F
ESTEVAN        PTCLDY    48  32  53 S5        29.89F
$$





USA.gov is the U.S. government's official web portal to all federal, state and local government web resources and services.